Time,TemperatureF,DewpointF,PressureIn,WindDirection,WindDirectionDegrees,WindSpeedMPH,WindSpeedGustMPH,Humidity,HourlyPrecipIn,Conditions,Clouds,dailyrainin,SoftwareType,DateUTC
2013-01-08 00:04:00,37.0,34.3,30.15,NW,315,0.0,0.0,90,0.00,,---,0.00,VWS V14.01,2013-01-08 06:04:00,
2013-01-08 00:09:00,37.1,34.8,30.15,NW,315,0.0,0.0,91,0.00,,---,0.00,VWS V14.01,2013-01-08 06:09:00,
2013-01-08 00:14:00,37.1,34.8,30.15,NW,315,0.0,0.0,91,0.00,,---,0.00,VWS V14.01,2013-01-08 06:14:00,
2013-01-08 00:19:00,37.1,35.0,30.15,NW,315,0.0,0.0,92,0.00,,---,0.00,VWS V14.01,2013-01-08 06:19:00,
2013-01-08 00:24:00,37.1,35.0,30.15,NW,315,0.0,0.0,92,0.00,,---,0.00,VWS V14.01,2013-01-08 06:24:00,
2013-01-08 00:29:00,37.1,35.0,30.15,NW,315,0.0,0.0,92,0.00,,---,0.00,VWS V14.01,2013-01-08 06:29:00,
2013-01-08 00:34:00,37.1,35.0,30.15,NW,315,0.0,0.0,92,0.00,,---,0.00,VWS V14.01,2013-01-08 06:34:00,
2013-01-08 00:39:00,37.1,35.0,30.15,NW,315,0.0,0.0,92,0.00,,---,0.00,VWS V14.01,2013-01-08 06:39:00,
2013-01-08 00:44:00,37.1,35.0,30.12,WNW,292,0.0,0.0,92,0.00,,---,0.00,VWS V14.01,2013-01-08 06:44:00,
2013-01-08 00:50:00,37.0,34.6,30.12,WNW,292,0.0,0.0,91,0.00,,---,0.00,VWS V14.01,2013-01-08 06:50:00,
2013-01-08 00:55:00,36.8,34.4,30.12,WNW,292,0.0,0.0,91,0.00,,---,0.00,VWS V14.01,2013-01-08 06:55:00,
2013-01-08 01:00:00,36.8,34.4,30.15,WNW,292,0.0,0.0,91,0.00,,---,0.00,VWS V14.01,2013-01-08 07:00:00,
2013-01-08 01:05:00,36.8,34.4,30.15,SSE,158,0.0,0.0,91,0.00,,---,0.00,VWS V14.01,2013-01-08 07:05:00,
2013-01-08 01:10:00,36.6,34.2,30.15,WSW,248,0.0,0.0,91,0.00,,---,0.00,VWS V14.01,2013-01-08 07:10:00,
2013-01-08 01:15:00,36.6,34.2,30.12,WSW,248,0.0,0.0,91,0.00,,---,0.00,VWS V14.01,2013-01-08 07:15:00,
2013-01-08 01:20:00,36.6,34.2,30.12,WNW,292,0.0,0.0,91,0.00,,---,0.00,VWS V14.01,2013-01-08 07:20:00,
2013-01-08 01:25:00,36.4,34.3,30.12,WNW,292,0.0,0.0,92,0.00,,---,0.00,VWS V14.01,2013-01-08 07:25:00,
2013-01-08 01:30:00,36.4,34.3,30.12,WNW,292,0.0,0.0,92,0.00,,---,0.00,VWS V14.01,2013-01-08 07:30:00,
2013-01-08 01:35:00,36.4,34.3,30.12,WNW,292,0.0,0.0,92,0.00,,---,0.00,VWS V14.01,2013-01-08 07:35:00,
2013-01-08 01:40:00,36.4,34.3,30.12,WNW,292,0.0,0.0,92,0.00,,---,0.00,VWS V14.01,2013-01-08 07:40:00,
2013-01-08 01:45:00,36.2,34.1,30.12,WNW,292,0.0,0.0,92,0.00,,---,0.00,VWS V14.01,2013-01-08 07:45:00,
2013-01-08 01:50:00,36.2,34.1,30.12,WNW,292,0.0,0.0,92,0.00,,---,0.00,VWS V14.01,2013-01-08 07:50:00,
2013-01-08 01:55:00,36.2,34.1,30.12,WNW,292,0.0,0.0,92,0.00,,---,0.00,VWS V14.01,2013-01-08 07:55:00,
2013-01-08 02:00:00,36.2,34.1,30.15,WNW,292,0.0,0.0,92,0.00,,---,0.00,VWS V14.01,2013-01-08 08:00:00,
2013-01-08 02:05:00,36.2,34.4,30.15,WNW,292,0.0,0.0,93,0.00,,---,0.00,VWS V14.01,2013-01-08 08:05:00,
2013-01-08 02:10:00,36.2,34.4,30.15,WNW,292,0.0,0.0,93,0.00,,---,0.00,VWS V14.01,2013-01-08 08:10:00,
2013-01-08 02:15:00,36.1,34.2,30.15,WNW,292,0.0,0.0,93,0.00,,---,0.00,VWS V14.01,2013-01-08 08:15:00,
2013-01-08 02:20:00,36.1,34.2,30.15,WNW,292,0.0,0.0,93,0.00,,---,0.00,VWS V14.01,2013-01-08 08:20:00,
2013-01-08 02:25:00,36.1,34.2,30.15,WNW,292,0.0,0.0,93,0.00,,---,0.00,VWS V14.01,2013-01-08 08:25:00,
2013-01-08 02:30:00,36.1,34.2,30.15,WNW,292,0.0,0.0,93,0.00,,---,0.00,VWS V14.01,2013-01-08 08:30:00,
2013-01-08 02:35:00,36.1,34.2,30.15,WNW,292,0.0,0.0,93,0.00,,---,0.00,VWS V14.01,2013-01-08 08:35:00,
2013-01-08 02:41:00,35.9,34.1,30.15,WNW,292,0.0,0.0,93,0.00,,---,0.00,VWS V14.01,2013-01-08 08:41:00,
2013-01-08 02:46:00,35.9,34.1,30.15,NW,315,0.0,0.0,93,0.00,,---,0.00,VWS V14.01,2013-01-08 08:46:00,
2013-01-08 02:51:00,35.9,34.1,30.15,WNW,292,0.0,0.0,93,0.00,,---,0.00,VWS V14.01,2013-01-08 08:51:00,
2013-01-08 02:56:00,36.1,34.2,30.15,WNW,292,0.0,0.0,93,0.00,,---,0.00,VWS V14.01,2013-01-08 08:56:00,
2013-01-08 03:01:00,36.2,34.4,30.15,WNW,292,0.0,0.0,93,0.00,,---,0.00,VWS V14.01,2013-01-08 09:01:00,
2013-01-08 03:06:00,36.4,34.9,30.15,NW,315,0.0,0.0,94,0.00,,---,0.00,VWS V14.01,2013-01-08 09:06:00,
2013-01-08 03:11:00,36.4,34.9,30.15,NW,315,0.0,0.0,94,0.00,,---,0.00,VWS V14.01,2013-01-08 09:11:00,
2013-01-08 03:16:00,36.6,34.8,30.15,WNW,292,0.0,0.0,93,0.00,,---,0.00,VWS V14.01,2013-01-08 09:16:00,
2013-01-08 03:21:00,36.8,35.2,30.15,SSE,158,0.0,0.0,94,0.00,,---,0.00,VWS V14.01,2013-01-08 09:21:00,
2013-01-08 03:26:00,37.0,35.4,30.15,SSE,158,0.0,0.0,94,0.00,,---,0.00,VWS V14.01,2013-01-08 09:26:00,
2013-01-08 03:31:00,37.1,35.6,30.12,West,270,0.0,0.0,94,0.00,,---,0.00,VWS V14.01,2013-01-08 09:31:00,
2013-01-08 03:36:00,37.3,35.8,30.12,SSE,158,0.0,0.0,94,0.00,,---,0.00,VWS V14.01,2013-01-08 09:36:00,
2013-01-08 03:41:00,37.5,35.9,30.12,SSE,158,0.0,0.0,94,0.00,,---,0.00,VWS V14.01,2013-01-08 09:41:00,
2013-01-08 03:46:00,37.7,36.1,30.12,ESE,112,0.0,0.0,94,0.00,,---,0.00,VWS V14.01,2013-01-08 09:46:00,
2013-01-08 03:51:00,37.7,36.1,30.12,ESE,112,0.0,0.0,94,0.00,,---,0.00,VWS V14.01,2013-01-08 09:51:00,
2013-01-08 03:56:00,37.9,36.3,30.12,ESE,112,0.0,0.0,94,0.00,,---,0.00,VWS V14.01,2013-01-08 09:56:00,
2013-01-08 04:01:00,37.9,36.3,30.12,SSE,158,0.0,0.0,94,0.00,,---,0.00,VWS V14.01,2013-01-08 10:01:00,
2013-01-08 04:07:00,38.0,36.5,30.12,SSE,158,0.0,0.0,94,0.00,,---,0.00,VWS V14.01,2013-01-08 10:07:00,
2013-01-08 04:12:00,38.0,36.5,30.12,SSE,158,0.0,0.0,94,0.00,,---,0.00,VWS V14.01,2013-01-08 10:12:00,
2013-01-08 04:17:00,38.2,36.7,30.12,SSE,158,0.0,0.0,94,0.00,,---,0.00,VWS V14.01,2013-01-08 10:17:00,
2013-01-08 04:22:00,38.4,36.8,30.12,SSE,158,0.0,0.0,94,0.00,,---,0.00,VWS V14.01,2013-01-08 10:22:00,
2013-01-08 04:27:00,38.4,36.8,30.12,NW,315,0.0,0.0,94,0.00,,---,0.00,VWS V14.01,2013-01-08 10:27:00,
2013-01-08 04:32:00,38.4,36.8,30.12,North,0,0.0,0.0,94,0.00,,---,0.00,VWS V14.01,2013-01-08 10:32:00,
2013-01-08 04:37:00,38.6,37.0,30.12,North,0,0.0,0.0,94,0.00,,---,0.00,VWS V14.01,2013-01-08 10:37:00,
2013-01-08 04:42:00,38.6,37.0,30.12,North,0,0.0,0.0,94,0.00,,---,0.00,VWS V14.01,2013-01-08 10:42:00,
2013-01-08 04:47:00,38.9,37.6,30.12,ESE,112,0.0,0.0,95,0.00,,---,0.00,VWS V14.01,2013-01-08 10:47:00,
2013-01-08 04:52:00,39.1,37.8,30.12,ENE,68,0.0,0.0,95,0.00,,---,0.00,VWS V14.01,2013-01-08 10:52:00,
2013-01-08 04:57:00,39.3,38.0,30.12,WNW,292,0.0,0.0,95,0.00,,---,0.00,VWS V14.01,2013-01-08 10:57:00,
2013-01-08 05:02:00,39.5,38.2,30.12,NNE,22,0.0,0.0,95,0.00,,---,0.00,VWS V14.01,2013-01-08 11:02:00,
2013-01-08 05:07:00,39.7,38.3,30.12,SSE,158,0.0,0.0,95,0.00,,---,0.00,VWS V14.01,2013-01-08 11:07:00,
2013-01-08 05:12:00,39.8,38.5,30.12,ENE,68,0.0,0.0,95,0.00,,---,0.00,VWS V14.01,2013-01-08 11:12:00,
2013-01-08 05:17:00,39.8,38.5,30.12,SSW,202,0.0,0.0,95,0.00,,---,0.00,VWS V14.01,2013-01-08 11:17:00,
2013-01-08 05:22:00,40.0,38.7,30.12,WNW,292,0.0,0.0,95,0.00,,---,0.00,VWS V14.01,2013-01-08 11:22:00,
2013-01-08 05:27:00,40.2,38.9,30.12,WNW,292,0.0,0.0,95,0.00,,---,0.00,VWS V14.01,2013-01-08 11:27:00,
2013-01-08 05:32:00,40.2,38.9,30.12,WNW,292,0.0,0.0,95,0.00,,---,0.00,VWS V14.01,2013-01-08 11:32:00,
2013-01-08 05:37:00,40.2,38.9,30.12,WNW,292,0.0,0.0,95,0.00,,---,0.00,VWS V14.01,2013-01-08 11:37:00,
2013-01-08 05:42:00,40.2,38.9,30.12,NW,315,0.0,0.0,95,0.00,,---,0.00,VWS V14.01,2013-01-08 11:42:00,
2013-01-08 05:47:00,40.4,38.8,30.12,WSW,248,0.0,0.0,94,0.00,,---,0.00,VWS V14.01,2013-01-08 11:47:00,
2013-01-08 05:52:00,40.4,38.8,30.12,WSW,248,0.0,0.0,94,0.00,,---,0.00,VWS V14.01,2013-01-08 11:52:00,
2013-01-08 05:57:00,40.4,38.8,30.12,SSE,158,0.0,0.0,94,0.00,,---,0.00,VWS V14.01,2013-01-08 11:57:00,
2013-01-08 06:03:00,40.4,38.8,30.12,SSE,158,0.0,0.0,94,0.00,,---,0.00,VWS V14.01,2013-01-08 12:03:00,
2013-01-08 06:08:00,40.4,38.8,30.12,SSE,158,0.0,0.0,94,0.00,,---,0.00,VWS V14.01,2013-01-08 12:08:00,
2013-01-08 06:13:00,40.4,38.8,30.12,SSE,158,0.0,0.0,94,0.00,,---,0.00,VWS V14.01,2013-01-08 12:13:00,
2013-01-08 06:18:00,40.4,38.8,30.12,East,90,0.0,0.0,94,0.00,,---,0.00,VWS V14.01,2013-01-08 12:18:00,
2013-01-08 06:23:00,40.9,39.3,30.12,WSW,248,0.0,0.0,94,0.00,,---,0.00,VWS V14.01,2013-01-08 12:23:00,
2013-01-08 06:28:00,40.9,39.3,30.12,WNW,292,0.0,0.0,94,0.00,,---,0.00,VWS V14.01,2013-01-08 12:28:00,
2013-01-08 06:33:00,40.9,39.3,30.12,WNW,292,0.0,0.0,94,0.00,,---,0.00,VWS V14.01,2013-01-08 12:33:00,
2013-01-08 06:38:00,40.9,39.3,30.12,West,270,0.0,0.0,94,0.00,,---,0.00,VWS V14.01,2013-01-08 12:38:00,
2013-01-08 06:43:00,40.9,39.3,30.15,West,270,0.0,0.0,94,0.00,,---,0.00,VWS V14.01,2013-01-08 12:43:00,
2013-01-08 06:48:00,40.9,39.3,30.15,SE,135,0.0,0.0,94,0.00,,---,0.00,VWS V14.01,2013-01-08 12:48:00,
2013-01-08 06:53:00,40.9,39.3,30.15,SE,135,0.0,0.0,94,0.00,,---,0.00,VWS V14.01,2013-01-08 12:53:00,
2013-01-08 06:58:00,40.9,39.6,30.15,SSE,158,0.0,0.0,95,0.00,,---,0.00,VWS V14.01,2013-01-08 12:58:00,
2013-01-08 07:03:00,40.7,39.2,30.15,SSW,202,0.0,0.0,94,0.00,,---,0.00,VWS V14.01,2013-01-08 13:03:00,
2013-01-08 07:09:00,40.6,39.0,30.15,West,270,0.0,0.0,94,0.00,,---,0.00,VWS V14.01,2013-01-08 13:09:00,
2013-01-08 07:14:00,40.6,39.0,30.18,West,270,0.0,0.0,94,0.00,,---,0.00,VWS V14.01,2013-01-08 13:14:00,
2013-01-08 07:19:00,40.7,39.2,30.18,WSW,248,0.0,0.0,94,0.00,,---,0.00,VWS V14.01,2013-01-08 13:19:00,
2013-01-08 07:24:00,40.7,39.2,30.18,WSW,248,0.0,0.0,94,0.00,,---,0.00,VWS V14.01,2013-01-08 13:24:00,
2013-01-08 07:29:00,40.7,39.4,30.15,WSW,248,0.0,0.0,95,0.00,,---,0.00,VWS V14.01,2013-01-08 13:29:00,
2013-01-08 07:34:00,40.9,39.3,30.15,ENE,68,0.0,0.0,94,0.00,,---,0.00,VWS V14.01,2013-01-08 13:34:00,
2013-01-08 07:39:00,40.9,39.3,30.15,SSW,202,0.0,0.0,94,0.00,,---,0.00,VWS V14.01,2013-01-08 13:39:00,
2013-01-08 07:44:00,41.1,39.8,30.15,West,270,0.0,0.0,95,0.00,,---,0.00,VWS V14.01,2013-01-08 13:44:00,
2013-01-08 07:49:00,41.3,40.0,30.15,ESE,112,0.0,0.0,95,0.00,,---,0.00,VWS V14.01,2013-01-08 13:49:00,
2013-01-08 07:54:00,41.5,40.1,30.15,WNW,292,0.0,0.0,95,0.00,,---,0.00,VWS V14.01,2013-01-08 13:54:00,
2013-01-08 07:59:00,41.6,40.3,30.18,WNW,292,0.0,0.0,95,0.00,,---,0.00,VWS V14.01,2013-01-08 13:59:00,
2013-01-08 08:04:00,42.0,40.4,30.18,NE,45,0.0,0.0,94,0.00,,---,0.00,VWS V14.01,2013-01-08 14:04:00,
2013-01-08 08:09:00,42.4,40.8,30.18,SSW,202,0.0,0.0,94,0.00,,---,0.00,VWS V14.01,2013-01-08 14:09:00,
2013-01-08 08:14:00,42.7,41.1,30.18,WNW,292,0.0,0.0,94,0.00,,---,0.00,VWS V14.01,2013-01-08 14:14:00,
2013-01-08 08:19:00,43.1,41.5,30.18,WNW,292,0.0,0.0,94,0.00,,---,0.00,VWS V14.01,2013-01-08 14:19:00,
2013-01-08 08:24:00,43.6,42.0,30.18,ESE,112,0.0,0.0,94,0.00,,---,0.00,VWS V14.01,2013-01-08 14:24:00,
2013-01-08 08:30:00,44.3,42.7,30.18,SSE,158,0.0,0.0,94,0.00,,---,0.00,VWS V14.01,2013-01-08 14:30:00,
2013-01-08 08:35:00,44.9,43.0,30.18,ENE,68,0.0,0.0,93,0.00,,---,0.00,VWS V14.01,2013-01-08 14:35:00,
2013-01-08 08:40:00,45.2,43.1,30.18,ESE,112,0.0,0.0,92,0.00,,---,0.00,VWS V14.01,2013-01-08 14:40:00,
2013-01-08 08:45:00,46.0,43.5,30.18,SSE,158,0.0,0.0,91,0.00,,---,0.00,VWS V14.01,2013-01-08 14:45:00,
2013-01-08 08:50:00,46.7,43.6,30.18,ENE,68,0.0,0.0,89,0.00,,---,0.00,VWS V14.01,2013-01-08 14:50:00,
2013-01-08 08:55:00,47.4,43.7,30.18,ENE,68,0.0,0.0,87,0.00,,---,0.00,VWS V14.01,2013-01-08 14:55:00,
2013-01-08 09:00:00,48.3,44.6,30.18,ENE,68,0.0,0.0,87,0.00,,---,0.00,VWS V14.01,2013-01-08 15:00:00,
2013-01-08 09:05:00,50.1,45.5,30.18,ESE,112,2.5,2.5,84,0.00,,---,0.00,VWS V14.01,2013-01-08 15:05:00,
2013-01-08 09:10:00,51.5,45.2,30.18,WNW,292,0.0,2.2,79,0.00,,---,0.00,VWS V14.01,2013-01-08 15:10:00,
2013-01-08 09:15:00,52.6,45.6,30.18,SSE,158,0.0,1.3,77,0.00,,---,0.00,VWS V14.01,2013-01-08 15:15:00,
2013-01-08 09:20:00,52.4,44.8,30.18,SSE,158,0.0,1.3,75,0.00,,---,0.00,VWS V14.01,2013-01-08 15:20:00,
2013-01-08 09:25:00,52.8,44.0,30.18,SE,135,0.9,5.4,72,0.00,,---,0.00,VWS V14.01,2013-01-08 15:25:00,
2013-01-08 09:30:00,52.8,44.0,30.18,SE,135,0.9,2.0,72,0.00,,---,0.00,VWS V14.01,2013-01-08 15:30:00,
2013-01-08 09:36:00,52.8,43.7,30.18,SSE,158,2.2,2.2,71,0.00,,---,0.00,VWS V14.01,2013-01-08 15:36:00,
2013-01-08 09:41:00,53.3,44.2,30.18,ESE,112,1.1,2.2,71,0.00,,---,0.00,VWS V14.01,2013-01-08 15:41:00,
2013-01-08 09:46:00,54.1,44.9,30.18,ESE,112,2.0,4.3,71,0.00,,---,0.00,VWS V14.01,2013-01-08 15:46:00,
2013-01-08 09:51:00,54.8,45.6,30.18,SSW,202,0.0,0.9,71,0.00,,---,0.00,VWS V14.01,2013-01-08 15:51:00,
2013-01-08 09:56:00,55.0,45.4,30.18,SE,135,1.3,2.9,70,0.00,,---,0.00,VWS V14.01,2013-01-08 15:56:00,
2013-01-08 10:01:00,55.3,46.1,30.18,ESE,112,2.5,2.5,71,0.00,,---,0.00,VWS V14.01,2013-01-08 16:01:00,
2013-01-08 10:06:00,56.4,46.8,30.18,SSE,158,4.3,4.3,70,0.00,,---,0.00,VWS V14.01,2013-01-08 16:06:00,
2013-01-08 10:11:00,58.0,48.3,30.18,ESE,112,4.3,4.3,70,0.00,,---,0.00,VWS V14.01,2013-01-08 16:11:00,
2013-01-08 10:16:00,57.7,47.2,30.21,NNE,22,2.5,2.5,68,0.00,,---,0.00,VWS V14.01,2013-01-08 16:16:00,
2013-01-08 10:22:00,57.3,46.8,30.21,SE,135,1.6,4.0,68,0.00,,---,0.00,VWS V14.01,2013-01-08 16:22:00,
2013-01-08 10:27:00,57.7,47.6,30.21,ESE,112,0.0,1.1,69,0.00,,---,0.00,VWS V14.01,2013-01-08 16:27:00,
2013-01-08 10:32:00,58.2,47.7,30.18,SSE,158,1.1,2.0,68,0.00,,---,0.00,VWS V14.01,2013-01-08 16:32:00,
2013-01-08 10:37:00,58.2,47.7,30.18,SE,135,1.1,1.1,68,0.00,,---,0.00,VWS V14.01,2013-01-08 16:37:00,
2013-01-08 10:42:00,58.2,47.3,30.18,NE,45,2.0,2.0,67,0.00,,---,0.00,VWS V14.01,2013-01-08 16:42:00,
2013-01-08 10:47:00,59.6,49.5,30.18,ENE,68,1.1,1.6,69,0.00,,---,0.00,VWS V14.01,2013-01-08 16:47:00,
2013-01-08 10:52:00,60.7,49.3,30.18,ESE,112,0.0,1.6,66,0.00,,---,0.00,VWS V14.01,2013-01-08 16:52:00,
2013-01-08 10:57:00,62.3,50.4,30.18,ENE,68,0.9,1.6,65,0.00,,---,0.00,VWS V14.01,2013-01-08 16:57:00,
2013-01-08 11:02:00,63.2,50.0,30.18,ENE,68,0.0,0.0,62,0.00,,---,0.00,VWS V14.01,2013-01-08 17:02:00,
2013-01-08 11:07:00,64.7,51.8,30.18,NNE,22,1.6,2.7,63,0.00,,---,0.00,VWS V14.01,2013-01-08 17:07:00,
2013-01-08 11:12:00,64.5,51.2,30.18,ESE,112,0.0,0.0,62,0.00,,---,0.00,VWS V14.01,2013-01-08 17:12:00,
2013-01-08 11:17:00,64.5,50.8,30.18,ESE,112,2.5,2.5,61,0.00,,---,0.00,VWS V14.01,2013-01-08 17:17:00,
2013-01-08 11:23:00,65.8,51.0,30.18,ESE,112,1.1,1.1,59,0.00,,---,0.00,VWS V14.01,2013-01-08 17:23:00,
2013-01-08 11:28:00,66.5,52.2,30.15,ESE,112,0.0,0.0,60,0.00,,---,0.00,VWS V14.01,2013-01-08 17:28:00,
2013-01-08 11:33:00,65.9,51.7,30.15,ENE,68,2.0,2.9,60,0.00,,---,0.00,VWS V14.01,2013-01-08 17:33:00,
2013-01-08 11:38:00,65.4,50.7,30.15,NE,45,0.0,0.0,59,0.00,,---,0.00,VWS V14.01,2013-01-08 17:38:00,
2013-01-08 11:43:00,65.4,51.2,30.15,NNE,22,2.5,2.5,60,0.00,,---,0.00,VWS V14.01,2013-01-08 17:43:00,
2013-01-08 11:48:00,65.8,52.0,30.15,ENE,68,0.0,2.0,61,0.00,,---,0.00,VWS V14.01,2013-01-08 17:48:00,
2013-01-08 11:53:00,65.8,52.0,30.15,SSE,158,0.0,0.0,61,0.00,,---,0.00,VWS V14.01,2013-01-08 17:53:00,
2013-01-08 11:58:00,65.8,52.0,30.15,ESE,112,1.6,3.8,61,0.00,,---,0.00,VWS V14.01,2013-01-08 17:58:00,
2013-01-08 12:03:00,65.8,52.0,30.15,NW,315,0.0,0.9,61,0.00,,---,0.00,VWS V14.01,2013-01-08 18:03:00,
2013-01-08 12:09:00,65.9,52.6,30.15,NW,315,1.6,2.2,62,0.00,,---,0.00,VWS V14.01,2013-01-08 18:09:00,
2013-01-08 12:14:00,65.8,52.4,30.15,SE,135,3.4,3.4,62,0.00,,---,0.00,VWS V14.01,2013-01-08 18:14:00,
2013-01-08 12:19:00,65.8,52.4,30.15,SSE,158,2.2,4.0,62,0.00,,---,0.00,VWS V14.01,2013-01-08 18:19:00,
2013-01-08 12:24:00,65.8,52.4,30.15,ESE,112,1.3,2.0,62,0.00,,---,0.00,VWS V14.01,2013-01-08 18:24:00,
2013-01-08 12:29:00,66.1,53.2,30.12,SE,135,0.0,0.0,63,0.00,,---,0.00,VWS V14.01,2013-01-08 18:29:00,
2013-01-08 12:34:00,65.9,53.0,30.12,SSE,158,2.2,3.6,63,0.00,,---,0.00,VWS V14.01,2013-01-08 18:34:00,
2013-01-08 12:39:00,65.8,52.8,30.12,SSE,158,2.2,2.5,63,0.00,,---,0.00,VWS V14.01,2013-01-08 18:39:00,
2013-01-08 12:44:00,65.4,52.5,30.12,SE,135,2.2,4.7,63,0.00,,---,0.00,VWS V14.01,2013-01-08 18:44:00,
2013-01-08 12:49:00,65.2,52.3,30.12,SSE,158,0.0,0.9,63,0.00,,---,0.00,VWS V14.01,2013-01-08 18:49:00,
2013-01-08 12:54:00,65.2,52.8,30.12,SSE,158,0.0,0.0,64,0.00,,---,0.00,VWS V14.01,2013-01-08 18:54:00,
2013-01-08 12:59:00,65.0,52.6,30.12,SSE,158,0.0,0.0,64,0.00,,---,0.00,VWS V14.01,2013-01-08 18:59:00,
2013-01-08 13:04:00,65.0,52.6,30.12,SSE,158,2.5,3.8,64,0.00,,---,0.00,VWS V14.01,2013-01-08 19:04:00,
2013-01-08 13:10:00,64.9,52.4,30.12,NNE,22,0.0,0.9,64,0.00,,---,0.00,VWS V14.01,2013-01-08 19:10:00,
2013-01-08 13:15:00,64.5,52.5,30.12,SSW,202,0.0,0.0,65,0.00,,---,0.00,VWS V14.01,2013-01-08 19:15:00,
2013-01-08 13:20:00,64.5,52.5,30.12,ESE,112,2.0,2.0,65,0.00,,---,0.00,VWS V14.01,2013-01-08 19:20:00,
2013-01-08 13:25:00,64.1,52.2,30.12,ESE,112,0.0,0.9,65,0.00,,---,0.00,VWS V14.01,2013-01-08 19:25:00,
2013-01-08 13:30:00,64.1,52.2,30.09,SE,135,0.0,1.3,65,0.00,,---,0.00,VWS V14.01,2013-01-08 19:30:00,
2013-01-08 13:35:00,64.1,52.2,30.09,NE,45,0.0,0.0,65,0.00,,---,0.00,VWS V14.01,2013-01-08 19:35:00,
2013-01-08 13:40:00,64.1,52.2,30.09,ESE,112,0.0,0.0,65,0.00,,---,0.00,VWS V14.01,2013-01-08 19:40:00,
2013-01-08 13:45:00,64.1,52.2,30.12,ENE,68,0.0,0.0,65,0.00,,---,0.00,VWS V14.01,2013-01-08 19:45:00,
2013-01-08 13:50:00,64.1,52.2,30.12,ENE,68,0.0,0.0,65,0.00,,---,0.00,VWS V14.01,2013-01-08 19:50:00,
2013-01-08 13:55:00,64.1,52.2,30.12,ENE,68,0.0,0.0,65,0.00,,---,0.00,VWS V14.01,2013-01-08 19:55:00,
2013-01-08 14:00:00,64.1,52.2,30.09,ENE,68,0.0,0.0,65,0.00,,---,0.00,VWS V14.01,2013-01-08 20:00:00,
2013-01-08 14:05:00,64.1,52.2,30.09,East,90,0.0,0.9,65,0.00,,---,0.00,VWS V14.01,2013-01-08 20:05:00,
2013-01-08 14:10:00,64.1,53.4,30.09,NE,45,0.0,0.0,68,0.00,,---,0.00,VWS V14.01,2013-01-08 20:10:00,
2013-01-08 14:15:00,64.1,53.4,30.09,ENE,68,0.0,0.0,68,0.00,,---,0.00,VWS V14.01,2013-01-08 20:15:00,
2013-01-08 14:21:00,64.1,53.4,30.09,SE,135,0.0,0.0,68,0.00,,---,0.00,VWS V14.01,2013-01-08 20:21:00,
2013-01-08 14:26:00,64.1,53.4,30.09,SW,225,0.0,0.0,68,0.00,,---,0.00,VWS V14.01,2013-01-08 20:26:00,
2013-01-08 14:31:00,64.1,53.8,30.09,ESE,112,0.0,0.0,69,0.00,,---,0.00,VWS V14.01,2013-01-08 20:31:00,
2013-01-08 14:36:00,63.8,53.4,30.09,ESE,112,0.0,2.0,69,0.00,,---,0.00,VWS V14.01,2013-01-08 20:36:00,
2013-01-08 14:41:00,63.6,53.3,30.09,SE,135,0.0,1.3,69,0.00,,---,0.00,VWS V14.01,2013-01-08 20:41:00,
2013-01-08 14:46:00,63.2,53.3,30.09,ESE,112,0.0,0.0,70,0.00,,---,0.00,VWS V14.01,2013-01-08 20:46:00,
2013-01-08 14:51:00,62.9,53.0,30.09,ESE,112,0.0,0.0,70,0.00,,---,0.00,VWS V14.01,2013-01-08 20:51:00,
2013-01-08 14:56:00,62.7,53.2,30.09,East,90,0.0,0.0,71,0.00,,---,0.00,VWS V14.01,2013-01-08 20:56:00,
2013-01-08 15:01:00,62.7,53.5,30.09,East,90,0.0,0.0,72,0.00,,---,0.00,VWS V14.01,2013-01-08 21:01:00,
2013-01-08 15:06:00,62.5,53.4,30.09,NNW,338,0.0,0.0,72,0.00,,---,0.00,VWS V14.01,2013-01-08 21:06:00,
2013-01-08 15:11:00,62.0,53.6,30.09,NW,315,0.0,0.0,74,0.00,,---,0.00,VWS V14.01,2013-01-08 21:11:00,
2013-01-08 15:17:00,62.0,54.0,30.09,NW,315,0.0,0.0,75,0.00,,---,0.00,VWS V14.01,2013-01-08 21:17:00,
2013-01-08 15:22:00,61.8,54.2,30.09,NW,315,0.0,0.0,76,0.00,,---,0.00,VWS V14.01,2013-01-08 21:22:00,
2013-01-08 15:27:00,61.8,54.2,30.09,ENE,68,0.0,0.0,76,0.00,,---,0.00,VWS V14.01,2013-01-08 21:27:00,
2013-01-08 15:32:00,62.0,54.7,30.09,ENE,68,0.0,0.0,77,0.00,,---,0.00,VWS V14.01,2013-01-08 21:32:00,
2013-01-08 15:37:00,62.0,54.7,30.09,ENE,68,0.0,0.0,77,0.00,,---,0.00,VWS V14.01,2013-01-08 21:37:00,
2013-01-08 15:42:00,62.0,55.0,30.09,SSE,158,0.0,0.0,78,0.00,,---,0.00,VWS V14.01,2013-01-08 21:42:00,
2013-01-08 15:47:00,61.8,55.2,30.09,SSE,158,0.0,2.5,79,0.00,,---,0.00,VWS V14.01,2013-01-08 21:47:00,
2013-01-08 15:52:00,61.6,55.0,30.09,SSW,202,0.0,0.0,79,0.00,,---,0.00,VWS V14.01,2013-01-08 21:52:00,
2013-01-08 15:57:00,61.4,55.2,30.09,ESE,112,0.0,0.0,80,0.00,,---,0.00,VWS V14.01,2013-01-08 21:57:00,
2013-01-08 16:02:00,61.4,55.2,30.06,ESE,112,0.0,2.5,80,0.00,,---,0.00,VWS V14.01,2013-01-08 22:02:00,
2013-01-08 16:07:00,61.4,55.2,30.06,ESE,112,0.0,0.0,80,0.00,,---,0.00,VWS V14.01,2013-01-08 22:07:00,
2013-01-08 16:12:00,61.4,55.6,30.06,SE,135,0.0,0.0,81,0.00,,---,0.00,VWS V14.01,2013-01-08 22:12:00,
2013-01-08 16:18:00,61.3,55.0,30.06,East,90,0.0,0.0,80,0.00,,---,0.00,VWS V14.01,2013-01-08 22:18:00,
2013-01-08 16:23:00,61.1,55.2,30.06,ESE,112,0.0,0.0,81,0.00,,---,0.00,VWS V14.01,2013-01-08 22:23:00,
2013-01-08 16:28:00,61.1,55.2,30.06,ESE,112,0.0,0.0,81,0.00,,---,0.00,VWS V14.01,2013-01-08 22:28:00,
2013-01-08 16:33:00,61.1,55.5,30.06,ESE,112,2.5,2.5,82,0.00,,---,0.00,VWS V14.01,2013-01-08 22:33:00,
2013-01-08 16:38:00,61.1,55.5,30.06,ESE,112,1.3,2.7,82,0.00,,---,0.00,VWS V14.01,2013-01-08 22:38:00,
2013-01-08 16:43:00,61.1,55.5,30.06,ESE,112,1.1,1.3,82,0.00,,---,0.00,VWS V14.01,2013-01-08 22:43:00,
2013-01-08 16:48:00,61.1,55.9,30.06,ESE,112,0.0,1.6,83,0.00,,---,0.00,VWS V14.01,2013-01-08 22:48:00,
2013-01-08 16:53:00,61.1,55.9,30.06,SSE,158,2.2,2.9,83,0.00,,---,0.00,VWS V14.01,2013-01-08 22:53:00,
2013-01-08 16:58:00,61.1,55.9,30.06,ENE,68,0.0,1.6,83,0.00,,---,0.00,VWS V14.01,2013-01-08 22:58:00,
2013-01-08 17:03:00,61.1,55.9,30.06,ESE,112,0.0,1.6,83,0.00,,---,0.00,VWS V14.01,2013-01-08 23:03:00,
2013-01-08 17:08:00,60.9,55.7,30.06,SSE,158,0.0,0.0,83,0.00,,---,0.00,VWS V14.01,2013-01-08 23:08:00,
2013-01-08 17:14:00,60.7,55.5,30.09,SSE,158,2.0,2.2,83,0.00,,---,0.00,VWS V14.01,2013-01-08 23:14:00,
2013-01-08 17:19:00,60.7,55.9,30.09,SE,135,1.6,1.6,84,0.00,,---,0.00,VWS V14.01,2013-01-08 23:19:00,
2013-01-08 17:24:00,60.5,55.7,30.09,SSW,202,0.0,0.0,84,0.00,,---,0.00,VWS V14.01,2013-01-08 23:24:00,
2013-01-08 17:29:00,60.2,55.3,30.06,WNW,292,0.0,0.0,84,0.00,,---,0.00,VWS V14.01,2013-01-08 23:29:00,
2013-01-08 17:34:00,60.0,55.2,30.06,WNW,292,0.0,0.0,84,0.00,,---,0.00,VWS V14.01,2013-01-08 23:34:00,
2013-01-08 17:39:00,59.8,55.3,30.06,South,180,0.0,0.0,85,0.00,,---,0.00,VWS V14.01,2013-01-08 23:39:00,
2013-01-08 17:44:00,59.6,55.1,30.06,SSE,158,0.0,0.0,85,0.00,,---,0.00,VWS V14.01,2013-01-08 23:44:00,
2013-01-08 17:49:00,59.5,55.0,30.09,SSW,202,0.0,0.0,85,0.00,,---,0.00,VWS V14.01,2013-01-08 23:49:00,
2013-01-08 17:54:00,59.3,55.1,30.09,West,270,0.0,0.0,86,0.00,,---,0.00,VWS V14.01,2013-01-08 23:54:00,
2013-01-08 17:59:00,59.3,55.4,30.09,ENE,68,0.0,0.0,87,0.00,,---,0.00,VWS V14.01,2013-01-08 23:59:00,
2013-01-08 18:04:00,59.3,55.4,30.09,ENE,68,0.0,0.0,87,0.00,,---,0.00,VWS V14.01,2013-01-09 00:04:00,
2013-01-08 18:09:00,59.1,55.2,30.09,ENE,68,0.0,0.0,87,0.00,,---,0.00,VWS V14.01,2013-01-09 00:09:00,
2013-01-08 18:15:00,59.1,55.2,30.09,ENE,68,0.0,0.0,87,0.00,,---,0.00,VWS V14.01,2013-01-09 00:15:00,
2013-01-08 18:20:00,58.9,55.4,30.09,NW,315,0.0,0.0,88,0.00,,---,0.00,VWS V14.01,2013-01-09 00:20:00,
2013-01-08 18:25:00,58.9,55.7,30.09,WNW,292,0.0,0.0,89,0.00,,---,0.00,VWS V14.01,2013-01-09 00:25:00,
2013-01-08 18:30:00,58.9,55.7,30.09,NNE,22,0.0,0.0,89,0.00,,---,0.00,VWS V14.01,2013-01-09 00:30:00,
2013-01-08 18:35:00,58.9,55.7,30.09,NNE,22,0.0,0.0,89,0.00,,---,0.00,VWS V14.01,2013-01-09 00:35:00,
2013-01-08 18:40:00,58.7,55.5,30.09,NNE,22,0.0,0.0,89,0.00,,---,0.00,VWS V14.01,2013-01-09 00:40:00,
2013-01-08 18:45:00,58.6,55.3,30.09,NNE,22,0.0,0.0,89,0.00,,---,0.00,VWS V14.01,2013-01-09 00:45:00,
2013-01-08 18:50:00,58.6,55.3,30.09,NE,45,0.0,0.0,89,0.00,,---,0.00,VWS V14.01,2013-01-09 00:50:00,
2013-01-08 18:55:00,58.6,55.6,30.09,NNE,22,0.0,0.0,90,0.00,,---,0.00,VWS V14.01,2013-01-09 00:55:00,
2013-01-08 19:00:00,58.6,55.6,30.09,ENE,68,0.0,0.0,90,0.00,,---,0.00,VWS V14.01,2013-01-09 01:00:00,
2013-01-08 19:05:00,58.4,55.5,30.09,ENE,68,0.0,0.0,90,0.00,,---,0.00,VWS V14.01,2013-01-09 01:05:00,
2013-01-08 19:10:00,58.4,55.5,30.09,East,90,0.0,0.0,90,0.00,,---,0.00,VWS V14.01,2013-01-09 01:10:00,
2013-01-08 19:15:00,58.2,55.3,30.09,ENE,68,0.0,0.0,90,0.00,,---,0.00,VWS V14.01,2013-01-09 01:15:00,
2013-01-08 19:21:00,58.6,56.0,30.09,ESE,112,0.0,0.0,91,0.00,,---,0.00,VWS V14.01,2013-01-09 01:21:00,
2013-01-08 19:26:00,58.6,56.0,30.09,ESE,112,0.0,0.0,91,0.00,,---,0.00,VWS V14.01,2013-01-09 01:26:00,
2013-01-08 19:31:00,58.6,56.0,30.09,East,90,0.0,0.0,91,0.00,,---,0.00,VWS V14.01,2013-01-09 01:31:00,
2013-01-08 19:36:00,58.9,56.3,30.09,SSE,158,2.2,2.5,91,0.00,,---,0.00,VWS V14.01,2013-01-09 01:36:00,
2013-01-08 19:41:00,58.9,56.3,30.09,ENE,68,0.0,2.0,91,0.00,,---,0.00,VWS V14.01,2013-01-09 01:41:00,
2013-01-08 19:46:00,59.1,56.5,30.09,SE,135,0.0,0.0,91,0.00,,---,0.00,VWS V14.01,2013-01-09 01:46:00,
2013-01-08 19:51:00,58.9,56.0,30.09,SSE,158,0.0,0.0,90,0.00,,---,0.00,VWS V14.01,2013-01-09 01:51:00,
2013-01-08 19:56:00,58.9,56.0,30.09,ESE,112,2.7,2.7,90,0.00,,---,0.00,VWS V14.01,2013-01-09 01:56:00,
2013-01-08 20:01:00,59.1,56.2,30.09,NE,45,1.3,3.6,90,0.00,,---,0.00,VWS V14.01,2013-01-09 02:01:00,
2013-01-08 20:06:00,59.3,56.3,30.09,ESE,112,2.5,3.1,90,0.00,,---,0.00,VWS V14.01,2013-01-09 02:06:00,
2013-01-08 20:11:00,59.5,56.5,30.09,SE,135,2.5,2.9,90,0.00,,---,0.00,VWS V14.01,2013-01-09 02:11:00,
2013-01-08 20:16:00,59.5,56.2,30.09,ENE,68,2.5,3.8,89,0.00,,---,0.00,VWS V14.01,2013-01-09 02:16:00,
2013-01-08 20:22:00,59.5,55.9,30.09,ESE,112,1.6,2.5,88,0.00,,---,0.00,VWS V14.01,2013-01-09 02:22:00,
2013-01-08 20:27:00,59.5,55.9,30.09,SSE,158,2.2,2.2,88,0.00,,---,0.00,VWS V14.01,2013-01-09 02:27:00,
2013-01-08 20:32:00,59.5,55.6,30.09,SE,135,3.1,3.1,87,0.00,,---,0.00,VWS V14.01,2013-01-09 02:32:00,
2013-01-08 20:37:00,59.5,55.6,30.09,SE,135,1.3,1.3,87,0.00,,---,0.00,VWS V14.01,2013-01-09 02:37:00,
2013-01-08 20:42:00,59.3,55.4,30.09,SSE,158,1.6,2.0,87,0.00,,---,0.00,VWS V14.01,2013-01-09 02:42:00,
2013-01-08 20:47:00,59.3,55.4,30.12,SSE,158,2.5,2.7,87,0.00,,---,0.00,VWS V14.01,2013-01-09 02:47:00,
2013-01-08 20:52:00,59.1,55.2,30.12,SSE,158,2.5,2.5,87,0.00,,---,0.00,VWS V14.01,2013-01-09 02:52:00,
2013-01-08 20:57:00,59.1,55.2,30.12,SSE,158,2.7,2.7,87,0.00,,---,0.00,VWS V14.01,2013-01-09 02:57:00,
2013-01-08 21:02:00,58.9,55.1,30.12,ESE,112,0.0,0.0,87,0.00,,---,0.00,VWS V14.01,2013-01-09 03:02:00,
2013-01-08 21:08:00,58.9,55.1,30.12,ESE,112,0.0,0.0,87,0.00,,---,0.00,VWS V14.01,2013-01-09 03:08:00,
2013-01-08 21:13:00,58.7,54.9,30.12,ESE,112,0.0,1.3,87,0.00,,---,0.00,VWS V14.01,2013-01-09 03:13:00,
2013-01-08 21:18:00,58.7,54.9,30.12,ESE,112,0.0,0.0,87,0.00,,---,0.00,VWS V14.01,2013-01-09 03:18:00,
2013-01-08 21:23:00,58.7,54.9,30.12,ESE,112,0.0,1.1,87,0.00,,---,0.00,VWS V14.01,2013-01-09 03:23:00,
2013-01-08 21:28:00,58.7,54.9,30.12,SSE,158,2.2,2.9,87,0.00,,---,0.00,VWS V14.01,2013-01-09 03:28:00,
2013-01-08 21:33:00,58.7,54.9,30.12,ESE,112,1.1,2.2,87,0.00,,---,0.00,VWS V14.01,2013-01-09 03:33:00,
2013-01-08 21:38:00,58.6,54.7,30.12,ESE,112,3.6,3.6,87,0.00,,---,0.00,VWS V14.01,2013-01-09 03:38:00,
2013-01-08 21:44:00,58.4,54.5,30.12,SE,135,2.0,2.0,87,0.00,,---,0.00,VWS V14.01,2013-01-09 03:44:00,
2013-01-08 21:49:00,58.2,54.7,30.12,ESE,112,1.1,3.1,88,0.00,,---,0.00,VWS V14.01,2013-01-09 03:49:00,
2013-01-08 21:54:00,58.2,54.7,30.12,ESE,112,1.1,2.2,88,0.00,,---,0.00,VWS V14.01,2013-01-09 03:54:00,
2013-01-08 21:59:00,58.0,54.8,30.15,ESE,112,2.2,3.1,89,0.00,,---,0.00,VWS V14.01,2013-01-09 03:59:00,
2013-01-08 22:04:00,57.8,54.9,30.15,ENE,68,0.0,0.0,90,0.00,,---,0.00,VWS V14.01,2013-01-09 04:04:00,
2013-01-08 22:09:00,57.7,55.1,30.15,SE,135,0.0,0.0,91,0.00,,---,0.00,VWS V14.01,2013-01-09 04:09:00,
2013-01-08 22:14:00,57.5,54.9,30.15,North,0,0.0,0.0,91,0.00,,---,0.00,VWS V14.01,2013-01-09 04:14:00,
2013-01-08 22:19:00,57.3,55.0,30.15,NNE,22,0.0,0.0,92,0.00,,---,0.00,VWS V14.01,2013-01-09 04:19:00,
2013-01-08 22:24:00,57.3,55.0,30.15,NNE,22,0.0,0.0,92,0.00,,---,0.00,VWS V14.01,2013-01-09 04:24:00,
2013-01-08 22:30:00,56.9,54.9,30.15,ENE,68,0.0,0.0,93,0.00,,---,0.00,VWS V14.01,2013-01-09 04:30:00,
2013-01-08 22:35:00,56.9,54.9,30.15,East,90,0.0,0.0,93,0.00,,---,0.00,VWS V14.01,2013-01-09 04:35:00,
2013-01-08 22:40:00,56.8,54.8,30.15,SSE,158,0.0,0.0,93,0.00,,---,0.00,VWS V14.01,2013-01-09 04:40:00,
2013-01-08 22:45:00,56.6,54.9,30.15,NE,45,0.0,0.0,94,0.00,,---,0.00,VWS V14.01,2013-01-09 04:45:00,
2013-01-08 22:50:00,56.4,54.7,30.15,SSE,158,0.0,0.0,94,0.00,,---,0.00,VWS V14.01,2013-01-09 04:50:00,
2013-01-08 22:55:00,56.4,54.7,30.15,ESE,112,0.0,0.0,94,0.00,,---,0.00,VWS V14.01,2013-01-09 04:55:00,
2013-01-08 23:00:00,56.4,54.7,30.15,NE,45,0.0,0.0,94,0.00,,---,0.00,VWS V14.01,2013-01-09 05:00:00,
2013-01-08 23:01:00,56.4,54.7,30.15,ENE,68,0.0,0.0,94,0.00,,---,0.00,VWS V14.01,2013-01-09 05:01:00,
2013-01-08 23:02:00,56.4,54.7,30.15,ENE,68,0.0,0.0,94,0.00,,---,0.00,VWS V14.01,2013-01-09 05:02:00,
2013-01-08 23:03:00,56.4,54.7,30.15,ENE,68,0.0,0.0,94,0.00,,---,0.00,VWS V14.01,2013-01-09 05:03:00,
2013-01-08 23:08:00,56.4,55.0,30.15,SE,135,1.1,1.1,95,0.00,,---,0.00,VWS V14.01,2013-01-09 05:08:00,
2013-01-08 23:13:00,56.2,54.8,30.12,NE,45,0.0,0.0,95,0.00,,---,0.00,VWS V14.01,2013-01-09 05:13:00,
2013-01-08 23:18:00,56.2,54.8,30.12,ESE,112,0.0,0.0,95,0.00,,---,0.00,VWS V14.01,2013-01-09 05:18:00,
2013-01-08 23:23:00,56.0,54.9,30.12,ENE,68,0.0,0.0,96,0.00,,---,0.00,VWS V14.01,2013-01-09 05:23:00,
2013-01-08 23:28:00,56.0,54.9,30.12,East,90,0.0,0.0,96,0.00,,---,0.00,VWS V14.01,2013-01-09 05:28:00,
2013-01-08 23:33:00,55.9,54.7,30.12,SSE,158,2.0,2.5,96,0.00,,---,0.00,VWS V14.01,2013-01-09 05:33:00,
2013-01-08 23:38:00,55.9,54.7,30.12,ESE,112,2.0,2.0,96,0.05,,---,0.05,VWS V14.01,2013-01-09 05:38:00,
2013-01-08 23:43:00,55.9,54.7,30.12,SE,135,1.3,1.3,96,0.05,,---,0.05,VWS V14.01,2013-01-09 05:43:00,
2013-01-08 23:49:00,55.9,55.0,30.12,SSE,158,0.0,0.0,97,0.05,,---,0.05,VWS V14.01,2013-01-09 05:49:00,
2013-01-08 23:54:00,55.9,55.0,30.12,ESE,112,0.0,0.0,97,0.05,,---,0.05,VWS V14.01,2013-01-09 05:54:00,
2013-01-08 23:59:00,55.9,55.0,30.12,SE,135,0.0,0.0,97,0.05,,---,0.05,VWS V14.01,2013-01-09 05:59:00,